{"data":{"norad_id":66342,"epoch":"2026-09-20T05:10:16.594176Z","epoch_age_seconds":117324,"freshness":"FRESH","line1":"1 66342U 25253Z   26263.21546984  .00010803  00000+0  40137-3 0  9995","line2":"2 66342  43.0004 194.0171 0001412 268.1119  91.9570 15.27592929 49996","mean_motion":15.27592929,"eccentricity":0.0001412,"inclination_deg":43.0004,"raan_deg":194.0171,"arg_perigee_deg":268.1119,"mean_anomaly_deg":91.957,"bstar":0.00040137,"rev_number":4999,"period_min":94.265950873618,"perigee_km":482.04158822515,"apogee_km":483.97917624589,"semimajor_km":6861.1473822355,"source":"CELESTRAK","updated_at":"2026-09-21T09:00:35.877694Z"}}